Location: Buckland
(65.9785°N, 161.1281°W)
Time: 23:29:30
(UTC+00:00)

Transit 4A - Pass Details

Date: 01 December 2020
Orbit: 864 x 980 km, 66.8° (Epoch: 20 January)

Event Time Altitude Azimuth Distance (km) Brightness Sun altitude
Rises 03:14:35 0° 308° (NW) 3,695 11.4 -12.3°
Reaches altitude 10° 03:17:36 10° 296° (WNW) 2,739 10.9 -12.5°
Maximum altitude 03:22:39 25° 244° (WSW) 1,842 10.5 -13.0°
Drops below altitude 10° 03:27:37 10° 192° (SSW) 2,688 10.8 -13.5°
Sets 03:30:33 0° 179° (S) 3,612 11.3 -13.7°
